Вернуться в каталог

THORAD AGENA D DEB

АктивенPO
NORAD 5347·DEBRIS·🇺🇸 United States

Запущен Apr 8, 1970 с Vandenberg Space Force Base

Loading…

Ближайшие Пролёты (ближайшие 24 часа)

TLE

СвежийSource: Space-Track

Эпоха: Sep 14, 2026, 05:20 UTC

1 05347U 70025KL  26257.22238005  .00000484  00000-0  45128-3 0  9996
2 05347  99.9055 177.5425 0044450 321.6524 198.1382 13.87120810769251

Отслеживайте THORAD AGENA D DEB в реальном времени с AllMySat

Download on the App Store